This is the latest recevied weather packets stored in our database for station/object DB0MOE-6. If no packets are shown the sender has not sent any weather packets the latest 1 day(s).
| Time | Temp. | Humidity | Pressure | Rain* | Wind** | Luminosity | Snow |
|---|---|---|---|---|---|---|---|
| 1778010203 | 14.44° C | 83% | 988.2 hPa | 0 mm | 0.45 m/s, 101° | - | - |
| 1778010143 | 14.44° C | 83% | 988.2 hPa | 0 mm | 0.45 m/s, 135° | - | - |
| 1778010083 | 14.44° C | 84% | 988.2 hPa | 0 mm | 0.45 m/s, 98° | - | - |
| 1778010023 | 14.44° C | 83% | 988.2 hPa | 0 mm | 0 m/s | - | - |
| 1778009963 | 14.44° C | 83% | 988.2 hPa | 0 mm | 0 m/s | - | - |
| 1778009903 | 14.44° C | 83% | 988.3 hPa | 0 mm | 0 m/s | - | - |
| 1778009842 | 14.44° C | 83% | 988.2 hPa | 0 mm | 0 m/s | - | - |
| 1778009782 | 14.44° C | 82% | 988.3 hPa | 0 mm | 0.45 m/s, 173° | - | - |
| 1778009722 | 14.44° C | 83% | 988 hPa | 0 mm | 0.45 m/s, 135° | - | - |
| 1778009662 | 14.44° C | 83% | 988.1 hPa | 0 mm | 0.45 m/s, 119° | - | - |
| 1778009602 | 14.44° C | 83% | 988.1 hPa | 0 mm | 0.45 m/s, 127° | - | - |
| 1778009542 | 14.44° C | 83% | 988.1 hPa | 0 mm | 0.45 m/s, 287° | - | - |
| 1778009482 | 14.44° C | 84% | 988.1 hPa | 0 mm | 0.45 m/s, 135° | - | - |
| 1778009422 | 14.44° C | 84% | 988.2 hPa | 0 mm | 0.45 m/s, 119° | - | - |
| 1778009362 | 14.44° C | 84% | 988.3 hPa | 0 mm | 0 m/s | - | - |
| 1778009302 | 14.44° C | 84% | 988.3 hPa | 0 mm | 0.45 m/s, 113° | - | - |
| 1778009242 | 14.44° C | 83% | 988.2 hPa | 0 mm | 0.45 m/s, 99° | - | - |
| 1778009182 | 14.44° C | 83% | 988.1 hPa | 0 mm | 0 m/s | - | - |
| 1778009122 | 14.44° C | 83% | 988.2 hPa | 0 mm | 0.45 m/s, 106° | - | - |
| 1778009062 | 14.44° C | 83% | 988.2 hPa | 0 mm | 0.45 m/s, 117° | - | - |
| 1778009002 | 14.44° C | 83% | 988.2 hPa | 0 mm | 0.45 m/s, 135° | - | - |
| 1778008942 | 14.44° C | 83% | 988.2 hPa | 0 mm | 0.45 m/s, 135° | - | - |
| 1778008882 | 14.44° C | 83% | 988.1 hPa | 0 mm | 0.45 m/s, 120° | - | - |
| 1778008822 | 14.44° C | 83% | 988.1 hPa | 0 mm | 0.45 m/s, 121° | - | - |
| 1778008762 | 14.44° C | 84% | 988.1 hPa | 0 mm | 0.45 m/s, 103° | - | - |
* Rain latest hour (hover to see other rain measurements)
** Current wind speed in m/s (hover to see current wind gust speed)